Back to catalog

INTELSAT 502

AliveCommunicationsGEO
NORAD 12089·PAYLOAD· XX

Launched Dec 6, 1980 from Cape Canaveral Space Force Station

Loading…

TLE

FreshSource: Space-Track

Epoch: Sep 13, 2026, 19:16 UTC

1 12089U 80098A   26256.80334818  .00000042  00000-0  00000-0 0  9997
2 12089  11.1732 326.4388 0010995 310.0453  67.8439  0.98888457134609

Track INTELSAT 502 in real time with AllMySat

Download on the App Store